Dewpoint
54 56 56 57 58 59 58 58 58 57 57 57 57 58 59 60 60 60 62 64 65 65 64 64 63 63 63 62 62 61 61 60 60 60 60 60 60 60 60 60 60 60 60 60 60 57 55 53 51 51 51 51 51 51 51 50 51 51 51 51 51 52 51 51 51 51 51 51 51 51 50 49 48 47 47 47 47 48 50 51 51 51 51 50 49 48 48 48 48 47 47 47 47 47 45 45 45 44 44 42 41 41 41
54 56 56 57 58 59 58 58 57 57 57 57 58 58 59 59 59 60 61 63 64 64 64 63 62 62 62 62 61 61 60 60 60 60 60 60 59 59 60 60 60 60 60 59 58 56 54 52 51 50 50 50 50 50 50 50 50 51 51 51 51 51 51 51 51 50 50 50 50 50 49 48 48 47 47 47 47 48 50 50 51 51 50 49 48 49 48 48 47 47 48 47 47 47 46 45 44 42 42 41 40 40 40
54 55 56 58 59 59 59 58 57 56 57 58 58 59 58 58 59 60 61 63 64 64 63 62 62 62 62 61 61 61 60 60 60 60 60 60 59 59 59 59 59 59 59 58 56 55 53 51 50 49 49 49 49 49 49 49 50 50 50 50 50 50 50 50 50 50 50 50 49 50 49 48 48 47 47 47 47 48 48 49 50 51 50 49 49 50 50 49 48 47 48 48 47 47 46 45 44 42 40 40 40 40 40
54 55 56 58 59 59 59 58 57 57 57 58 58 57 58 59 59 60 62 63 63 63 62 61 61 61 61 61 61 60 60 60 60 60 60 60 60 59 58 58 58 58 57 56 56 54 52 51 49 48 48 48 48 48 49 49 50 50 49 49 49 49 49 49 49 50 49 49 49 50 49 48 47 46 46 47 47 48 48 49 50 50 50 49 49 48 49 49 48 48 48 48 47 47 45 45 44 43 42 42 41 40 40
54 54 56 57 59 59 59 59 58 57 57 57 58 57 58 59 59 60 62 63 63 62 62 61 61 61 61 60 60 60 60 60 60 60 60 60 60 60 59 58 57 57 56 55 55 54 53 51 50 49 49 49 49 49 49 49 50 49 49 49 49 48 48 48 49 49 49 49 49 49 48 47 47 46 46 46 47 48 48 48 49 49 49 49 49 49 50 49 48 48 47 47 47 46 43 43 43 43 43 43 42 41 41
53 53 55 57 59 60 60 59 58 57 56 57 57 58 58 59 59 60 61 62 62 61 61 61 61 60 60 60 60 60 60 60 60 60 59 60 60 60 59 57 56 56 55 54 53 52 52 51 51 49 49 49 49 48 49 49 49 48 48 48 48 48 48 48 49 49 49 49 48 47 46 46 46 47 46 46 47 48 48 48 48 48 48 48 48 48 49 48 48 48 47 46 46 44 42 42 42 43 43 42 41 41 40
52 53 55 57 59 60 60 59 58 56 56 56 56 58 59 59 58 59 60 61 61 61 61 61 61 60 60 60 60 60 60 60 59 60 59 58 58 58 57 56 55 54 53 53 52 51 50 49 49 49 49 49 49 49 49 49 48 48 47 48 48 48 48 48 48 49 49 49 48 47 46 46 45 45 44 45 47 47 47 47 47 47 47 47 47 47 47 47 47 47 47 47 45 43 42 41 41 42 42 42 41 41 41
52 53 54 56 58 59 59 59 58 56 56 56 56 57 58 57 57 58 59 60 60 60 60 60 60 60 60 60 60 60 60 60 60 60 59 58 57 57 56 55 54 52 52 52 51 51 50 49 49 50 50 49 49 49 49 49 48 48 48 48 48 48 48 48 48 49 49 49 48 47 46 45 44 43 44 45 46 47 46 46 47 47 47 47 47 47 46 45 46 47 46 46 45 43 43 43 43 42 41 41 41 40 40
51 51 53 55 57 58 59 58 57 56 56 56 56 56 57 57 56 57 57 58 59 60 60 60 60 60 60 60 60 60 60 60 60 60 58 56 56 56 55 54 52 51 51 51 51 50 49 48 49 49 48 48 49 49 49 49 49 50 49 48 48 48 48 48 48 48 49 49 48 47 45 43 42 42 42 44 45 45 46 46 46 47 47 46 46 46 46 46 46 45 46 46 45 42 42 42 43 41 41 40 40 40 40
51 51 52 54 56 57 58 58 57 56 56 56 56 56 56 56 56 56 56 57 58 59 60 60 60 60 60 60 60 60 60 60 60 60 57 56 54 54 53 52 51 51 50 50 49 47 47 47 47 47 47 47 48 49 48 48 49 49 49 48 48 48 49 48 48 49 49 48 48 47 45 43 42 42 42 44 45 45 46 46 46 47 46 46 45 45 46 46 47 46 46 45 44 43 42 42 42 41 41 40 39 38 38
51 51 52 53 55 56 58 58 57 56 56 56 56 56 56 56 56 56 56 56 57 58 59 59 59 59 59 59 59 60 60 60 60 60 56 55 53 52 51 51 51 50 49 48 47 46 45 46 46 47 47 47 47 48 48 48 49 50 49 48 49 48 48 48 48 48 49 48 47 47 46 44 42 42 43 44 45 45 46 46 46 47 46 46 45 45 45 46 46 45 44 44 44 42 42 41 42 42 42 40 38 38 37
50 51 51 53 55 56 57 58 57 56 56 56 56 56 56 56 56 56 56 56 56 57 59 59 59 59 59 59 59 59 60 60 60 60 57 54 52 51 51 51 50 49 49 47 46 44 44 45 47 47 47 48 48 48 49 50 50 50 49 49 49 48 48 48 47 48 48 48 48 47 46 45 44 42 44 46 46 46 46 47 47 47 47 46 45 45 44 44 44 44 42 42 43 43 42 41 41 41 41 40 39 37 36
49 50 51 52 54 56 56 57 57 56 56 56 56 56 56 56 56 56 56 56 56 56 58 59 60 59 59 59 59 59 60 60 60 60 58 55 52 51 50 50 49 49 48 46 45 43 44 46 47 47 47 48 49 48 49 50 50 49 48 48 48 48 47 47 47 47 48 48 48 48 47 46 45 43 44 46 47 47 47 47 47 47 47 46 45 44 44 44 44 43 42 42 43 44 43 42 42 41 40 40 39 37 36
49 50 51 52 54 55 56 57 57 55 56 56 56 55 55 55 56 56 56 55 56 56 57 58 59 60 59 59 59 60 60 60 60 60 59 55 51 50 50 49 48 48 47 45 44 43 45 47 47 47 48 49 49 49 49 49 49 48 48 47 47 47 47 47 47 47 47 48 48 48 48 47 46 45 45 46 47 47 47 47 47 48 47 46 45 45 44 44 44 44 42 42 43 44 45 44 43 42 41 40 40 38 37
49 50 51 52 53 55 55 56 56 56 56 56 56 55 55 55 55 56 56 55 56 56 57 58 59 60 60 59 59 60 60 60 60 60 60 56 52 50 49 48 47 47 45 44 43 43 45 47 47 47 49 50 50 48 49 49 48 48 47 47 47 47 47 47 47 47 47 47 48 48 48 48 47 46 45 46 47 47 47 47 47 48 47 46 45 45 45 45 45 44 44 44 44 44 45 44 43 42 40 40 41 41 38
48 49 50 51 53 54 55 56 56 56 55 55 55 55 54 54 54 55 56 55 55 56 56 57 58 59 59 60 60 60 60 60 60 60 60 57 53 51 49 48 47 46 45 43 42 42 44 45 47 47 49 50 49 48 48 48 48 48 47 47 47 47 47 47 47 47 47 47 48 49 49 48 47 46 45 45 45 46 46 46 47 47 47 46 46 46 45 45 46 45 45 45 45 44 44 44 43 42 41 40 40 41 40
48 49 50 51 52 54 54 56 56 56 55 55 55 55 54 54 54 54 55 55 55 55 56 56 57 58 59 60 60 60 60 60 60 59 58 56 54 51 50 48 47 46 44 42 40 40 42 43 45 46 47 48 48 48 48 48 47 47 47 47 47 47 47 47 47 47 47 47 48 49 49 49 48 47 46 45 45 46 46 46 47 47 47 47 47 47 46 46 47 47 47 46 46 45 45 45 44 43 42 40 40 41 40
48 48 49 51 52 54 54 55 56 56 55 55 55 55 54 54 53 53 55 55 55 55 55 55 56 56 57 59 60 59 60 59 58 57 57 56 54 52 50 48 47 46 44 41 38 38 39 41 43 44 45 47 47 47 48 48 47 47 47 47 47 47 47 47 47 48 48 48 48 50 49 49 49 47 46 46 47 47 47 47 47 47 47 47 47 47 47 47 47 47 47 47 47 46 45 45 44 44 42 41 40 41 40
48 48 49 51 52 54 54 55 56 57 55 55 54 55 54 54 53 53 54 55 55 55 54 54 55 55 56 57 58 58 58 57 57 56 56 55 53 52 50 48 46 45 43 40 37 37 38 40 42 43 44 45 46 46 47 47 47 47 47 47 47 47 47 47 48 48 48 48 48 49 49 49 49 47 46 46 47 47 46 46 47 47 47 47 47 47 47 47 47 46 46 46 46 46 45 45 44 45 44 42 41 41 40
48 49 49 50 51 53 54 54 55 57 56 55 54 54 54 54 53 53 54 54 56 56 56 55 54 54 54 55 56 56 56 56 55 55 54 53 52 51 50 48 46 44 41 38 37 38 39 40 42 42 43 44 45 46 46 47 47 47 47 47 47 47 47 48 48 48 49 49 49 49 49 49 49 48 47 47 47 47 47 47 47 47 47 47 47 47 47 47 47 46 46 46 45 45 44 44 44 45 45 43 42 41 41
47 48 48 49 51 52 53 54 55 57 56 55 54 54 54 54 54 53 53 54 56 60 58 56 54 53 53 53 54 54 54 54 53 53 53 52 51 51 50 48 47 43 39 38 39 41 41 42 42 42 43 44 45 46 46 47 47 47 47 48 47 47 47 48 48 48 49 49 49 50 50 50 49 48 49 48 48 47 48 48 47 47 47 47 47 47 47 47 47 47 46 45 45 45 44 44 44 44 44 44 43 42 41
47 48 48 49 50 51 53 53 54 56 56 56 55 54 54 55 55 54 53 53 54 58 59 57 54 53 52 52 52 52 52 52 51 51 51 51 51 50 49 48 46 43 40 39 40 42 42 43 43 42 43 44 45 46 47 47 47 47 47 47 47 46 47 47 47 47 48 48 48 49 50 50 50 48 49 49 48 48 47 47 47 46 47 47 47 48 48 48 48 47 46 45 44 44 44 44 44 44 43 43 43 43 42
47 48 48 49 50 51 52 53 54 56 56 56 55 54 54 55 55 54 53 53 53 54 57 57 55 52 52 51 51 51 51 51 50 50 50 50 50 50 49 48 46 44 42 42 42 44 45 45 44 43 44 45 46 46 47 47 47 47 47 47 47 46 47 47 47 47 48 48 47 48 49 50 50 48 48 48 48 48 47 47 46 45 47 48 49 49 49 48 47 47 45 44 44 44 44 44 44 43 43 43 44 44 43
47 47 47 48 49 51 51 52 54 55 56 56 56 55 55 55 55 54 54 53 53 52 56 56 56 53 51 50 50 50 50 49 49 49 49 49 49 49 49 48 47 45 44 45 46 47 46 45 45 44 45 46 46 46 47 47 47 47 47 47 47 47 47 47 47 47 47 47 48 48 49 50 50 49 50 49 49 49 48 47 46 46 46 47 49 50 50 48 47 46 45 44 43 44 44 44 44 43 43 43 44 44 43
47 47 47 48 49 50 51 52 53 55 56 56 56 56 56 55 55 55 54 53 53 52 53 55 56 52 50 49 49 49 49 49 48 48 48 48 48 49 49 48 47 47 46 47 48 48 47 47 46 45 46 47 47 46 46 46 47 46 47 47 47 47 48 48 47 47 48 48 48 49 50 50 50 51 51 50 50 49 49 48 47 47 46 47 48 47 48 48 47 46 45 44 43 43 44 44 44 43 43 43 43 42 43
46 47 47 48 49 50 51 51 52 54 55 56 56 56 56 56 56 55 54 54 53 53 52 53 53 51 50 49 49 48 48 48 48 48 48 48 48 48 48 48 48 48 48 48 48 48 47 47 47 47 46 47 47 47 46 46 46 46 46 47 47 48 48 48 48 47 48 48 49 50 51 51 51 51 51 50 49 49 49 49 48 48 47 47 48 48 48 48 48 47 46 44 43 44 43 44 43 42 42 43 42 42 42
46 47 47 47 48 49 50 51 51 53 54 56 56 57 56 56 56 56 55 54 53 53 52 52 52 51 50 49 49 48 47 47 48 48 48 48 49 48 48 49 49 49 49 49 48 46 46 47 48 47 47 47 47 47 46 46 46 45 46 46 47 47 48 48 48 48 48 48 50 51 51 51 52 52 52 51 50 50 49 48 48 48 48 47 47 47 48 48 48 47 47 45 43 43 43 43 43 41 40 41 42 42 42
46 46 47 47 48 49 49 50 51 52 53 54 56 57 56 56 56 56 55 54 53 53 52 52 52 52 51 50 49 49 48 48 48 48 48 49 49 49 49 49 50 50 50 49 48 47 47 48 48 47 47 46 46 46 46 46 45 45 46 46 47 47 47 48 48 48 47 48 50 51 51 52 52 52 52 51 51 50 50 49 49 48 49 47 47 47 47 48 48 48 47 45 43 42 42 42 42 42 42 42 42 42 42
46 46 47 47 48 48 49 50 51 51 53 54 55 56 56 56 55 56 55 54 53 53 53 52 52 52 52 51 51 50 49 49 48 48 48 49 49 49 49 49 50 50 50 50 49 48 48 49 48 47 47 46 46 46 46 45 45 45 46 46 46 47 47 47 47 47 47 48 49 50 51 52 52 51 51 52 51 51 50 50 50 49 50 49 48 48 47 47 47 48 47 46 44 44 43 42 42 42 42 42 42 42 42
46 46 47 47 47 48 49 49 50 51 52 53 55 56 56 56 55 56 55 55 54 53 53 53 52 52 52 52 51 51 50 50 49 49 49 49 49 49 49 49 50 50 50 50 50 49 50 50 49 48 47 47 46 46 46 46 45 45 45 46 46 46 47 47 48 48 48 48 48 49 51 53 53 52 50 51 52 51 51 51 51 50 50 49 49 48 47 48 48 49 47 46 45 45 43 42 41 41 42 42 42 42 42
46 46 47 47 47 48 48 49 50 51 52 53 54 55 56 56 56 56 55 55 54 54 53 53 52 52 52 52 52 51 51 51 50 49 50 50 49 49 49 49 49 50 50 50 50 50 51 51 50 48 48 47 47 46 46 46 46 46 46 46 46 46 47 48 49 48 47 47 47 50 52 53 53 53 52 51 51 50 51 51 51 51 50 49 48 48 48 48 48 47 47 47 46 46 42 42 42 42 42 41 40 41 41
46 46 46 47 47 47 48 49 49 50 51 52 53 55 55 55 55 55 55 55 55 54 54 53 53 52 52 52 52 52 52 51 51 50 50 50 49 49 49 48 49 50 50 50 50 50 51 51 51 49 48 48 47 47 47 47 47 47 47 47 47 47 48 49 49 47 47 47 48 50 51 52 53 53 53 52 52 51 52 51 50 50 49 49 49 49 48 48 47 46 47 46 45 44 44 43 42 42 42 42 41 40 40
45 46 46 47 47 47 48 48 49 50 51 51 53 54 55 55 55 55 55 55 55 55 54 53 53 53 53 53 52 52 52 52 51 50 50 49 49 49 49 49 49 50 50 51 50 50 51 51 51 50 49 49 49 48 48 49 50 49 48 49 49 49 48 49 49 49 50 50 50 49 50 51 52 52 52 53 53 53 52 51 50 49 49 48 48 48 48 48 47 47 47 47 46 46 45 44 43 42 42 42 41 40 41
45 46 46 46 47 47 47 48 49 49 50 51 52 53 54 54 54 55 55 55 55 55 54 54 53 53 53 53 53 52 52 52 51 50 50 49 49 48 49 49 50 50 50 51 51 51 51 52 52 51 51 50 50 50 50 51 52 52 51 50 50 50 49 49 49 50 50 51 51 50 50 51 51 51 51 52 52 52 51 51 50 50 49 48 48 48 48 47 47 47 47 47 47 46 45 44 44 43 42 41 41 42 42
45 45 46 46 47 47 47 48 48 49 49 50 51 52 53 54 54 54 54 55 55 55 55 54 54 53 53 53 53 52 52 52 51 51 50 49 49 49 48 49 50 50 50 51 51 52 52 53 52 52 52 51 51 51 51 52 52 51 51 52 51 51 50 50 50 50 51 51 51 51 51 51 51 51 51 51 51 51 50 50 50 49 49 48 48 48 48 47 47 47 47 47 46 46 46 45 44 44 42 42 42 43 42
45 45 46 46 47 47 47 48 48 49 49 50 51 51 52 53 53 54 54 55 55 55 55 55 54 53 53 53 53 52 52 51 51 51 50 49 49 49 49 50 51 51 51 51 51 52 53 52 52 53 52 52 52 52 52 52 53 51 53 53 52 51 51 51 50 50 51 51 50 50 50 50 50 51 51 51 50 50 50 50 50 49 49 48 48 47 48 47 47 47 47 46 46 47 47 46 46 46 45 45 45 45 45
44 45 45 46 46 47 47 47 48 48 48 49 50 51 51 52 53 53 54 54 54 55 55 55 54 54 53 53 52 52 51 51 51 50 50 49 49 49 50 50 51 51 51 51 51 51 52 52 52 53 53 52 52 52 52 52 53 53 54 53 52 52 52 51 51 51 50 50 50 50 50 49 49 50 50 50 50 50 50 50 49 49 49 48 48 47 48 47 47 47 47 47 47 47 47 47 47 48 47 47 47 47 47
44 44 45 46 46 47 47 47 47 48 48 48 49 50 51 51 52 53 53 53 54 54 54 54 54 54 53 53 52 52 51 51 50 50 50 50 49 49 50 50 51 51 51 51 51 51 51 51 52 52 52 52 52 52 52 52 52 53 53 53 53 53 52 51 51 51 50 50 50 50 50 50 49 49 49 49 49 49 49 49 49 49 49 48 48 48 48 48 47 47 46 46 46 47 47 47 48 48 47 47 47 47 47
44 44 45 46 46 47 47 47 47 48 48 48 48 49 50 51 51 52 52 53 53 54 54 54 54 54 53 53 52 52 51 51 50 50 50 50 50 50 50 50 51 51 51 51 51 51 51 51 51 51 52 52 52 52 52 52 52 53 52 52 53 53 52 51 51 51 50 50 50 50 50 49 49 49 48 48 48 48 49 49 49 48 48 48 48 49 49 48 47 47 47 46 46 47 47 47 48 48 47 47 47 47 47
43 44 45 46 47 47 48 48 48 47 48 48 48 49 50 51 51 51 52 52 53 53 53 54 54 54 53 53 52 52 51 51 50 50 50 50 50 50 50 51 51 51 51 51 50 51 51 51 51 51 51 51 52 52 52 52 52 52 51 52 52 53 52 52 51 51 51 50 50 50 50 50 49 49 48 48 48 48 48 48 48 48 48 48 49 49 49 48 48 47 47 47 47 47 47 47 47 48 48 48 48 48 48
43 44 45 47 47 48 48 47 47 47 47 47 48 48 49 50 50 51 51 52 52 53 53 53 53 53 53 53 52 52 51 51 51 50 51 51 51 51 51 51 51 51 51 51 50 50 50 51 51 51 51 51 51 51 51 51 51 51 51 51 52 52 52 52 51 51 51 51 51 50 50 50 50 50 49 48 48 48 48 48 48 48 48 48 48 48 48 48 48 49 48 47 47 47 47 47 47 48 48 49 49 50 49
43 44 45 46 47 47 47 47 47 47 47 47 47 48 49 49 50 51 51 51 51 52 52 53 53 53 53 53 53 52 52 51 51 51 51 51 51 51 51 51 51 51 51 51 50 50 50 50 51 51 51 51 51 51 51 51 51 51 51 51 51 51 52 52 51 51 51 51 51 50 50 50 50 50 50 49 48 48 48 48 48 48 48 48 48 47 47 48 48 50 50 49 48 47 47 47 47 48 49 49 50 50 50
43 43 44 45 45 46 46 47 47 47 47 47 47 48 48 49 49 50 51 51 51 51 52 52 53 53 53 53 53 53 52 51 51 51 51 51 51 51 51 51 51 51 51 51 50 50 50 50 51 51 51 51 51 51 51 51 51 51 51 51 51 51 52 51 51 51 51 51 51 51 51 51 50 50 50 50 49 49 48 48 48 49 49 49 48 47 47 47 48 48 49 49 49 49 48 48 48 48 49 49 50 50 50
42 43 43 44 45 45 46 46 46 47 47 47 47 47 48 48 49 49 50 51 51 51 51 52 52 53 53 53 53 53 52 52 52 52 51 51 51 51 51 51 51 51 51 51 50 50 50 50 51 51 51 51 51 51 51 51 51 51 51 51 51 51 51 52 52 51 51 51 51 51 51 51 50 51 50 50 50 49 49 48 48 48 49 49 49 48 47 47 48 48 49 50 50 50 49 49 49 49 49 49 49 49 49
42 42 43 43 44 44 45 45 46 46 47 47 47 47 47 48 48 49 49 50 51 51 51 51 52 52 52 52 52 53 52 52 52 52 52 52 52 52 51 51 51 51 51 50 50 50 50 50 51 51 51 51 51 51 51 51 51 51 51 51 51 51 51 52 52 51 51 51 51 51 51 51 50 51 51 50 50 50 49 49 48 48 49 49 49 48 48 48 48 48 49 50 50 50 50 50 49 49 49 49 49 49 49
42 42 42 42 43 44 44 45 45 46 46 47 47 47 48 48 48 48 49 50 50 51 51 51 51 52 52 52 52 52 52 52 52 52 52 52 52 52 52 52 51 51 51 51 51 50 50 50 51 51 51 51 51 51 51 51 51 51 52 51 51 51 52 52 52 51 51 51 51 51 50 50 51 51 51 50 50 50 50 49 49 48 48 48 49 49 49 49 49 49 49 49 50 50 50 50 50 50 49 49 49 49 49
42 42 42 42 42 43 43 44 44 45 45 46 47 47 47 48 48 48 49 49 50 50 51 51 51 51 51 52 52 52 52 52 52 52 52 52 52 52 52 52 52 52 51 51 51 51 51 51 51 51 51 52 52 51 51 51 51 51 51 52 52 52 52 52 52 52 52 51 51 51 51 51 51 51 51 51 51 50 50 50 50 50 50 49 49 49 50 50 51 51 51 51 51 51 50 50 50 50 49 49 48 48 49
42 42 42 42 42 42 42 43 43 44 45 45 46 47 47 47 48 48 48 49 49 50 51 51 51 51 51 51 51 52 52 52 52 52 52 52 52 52 52 52 52 52 52 52 52 51 51 51 51 51 52 52 52 52 52 52 51 52 52 52 53 53 52 52 52 53 53 53 52 51 51 51 51 51 51 51 51 51 51 51 51 51 50 50 49 49 50 51 51 52 51 51 51 51 50 49 49 50 49 48 48 48 49
41 42 42 42 41 42 42 42 43 43 44 44 45 46 46 47 47 47 48 48 49 49 50 51 51 51 51 51 51 52 52 52 52 52 52 52 52 52 52 52 53 53 53 53 53 52 52 52 51 52 52 52 52 52 52 52 52 52 52 52 52 53 52 52 52 52 53 54 54 52 52 51 51 51 50 50 50 51 51 51 51 51 50 50 51 53 54 54 53 53 53 51 51 50 50 50 50 51 49 49 49 49 49
41 42 42 42 41 41 42 42 42 42 43 44 44 45 46 46 47 47 47 48 48 49 49 50 51 51 51 51 52 52 52 52 52 52 52 52 52 52 52 52 53 53 53 53 53 53 53 53 53 52 52 52 52 52 52 52 52 52 52 52 52 52 52 52 52 52 52 54 55 54 53 52 51 51 50 50 50 50 50 51 51 50 50 51 53 54 50 48 48 50 51 51 51 50 50 51 51 51 51 51 51 51 51
41 42 42 42 42 42 42 42 42 43 44 45 45 45 45 45 46 47 47 47 48 48 49 49 50 50 51 51 51 51 51 51 51 52 52 52 52 52 52 52 52 52 53 53 53 53 53 53 53 53 53 53 53 52 52 52 52 52 52 52 52 52 52 52 52 52 52 52 52 54 53 53 52 52 51 51 50 50 50 50 50 50 51 53 55 51 47 44 44 46 47 48 50 52 51 51 51 51 52 54 55 56 56
40 41 42 42 42 42 42 43 43 43 44 44 44 44 44 44 45 46 47 47 47 48 48 49 49 50 50 51 51 51 51 51 51 51 52 52 52 52 52 52 52 52 52 52 52 52 52 52 52 53 53 53 53 52 52 52 52 52 52 52 52 52 52 52 52 52 52 51 51 53 53 53 53 53 53 51 51 50 49 49 50 50 51 53 54 49 45 43 43 44 44 46 49 54 52 53 54 54 57 58 59 59 58
38 40 41 42 42 42 43 44 44 42 42 43 43 44 44 44 44 45 46 46 47 47 48 48 48 49 49 50 51 51 51 51 51 51 51 51 52 52 52 52 52 52 52 52 52 52 52 52 52 53 52 52 52 52 52 52 52 52 52 52 52 52 52 52 52 52 52 52 53 54 53 53 53 53 54 53 52 51 50 50 50 50 51 53 52 47 43 42 42 43 43 44 47 53 56 58 58 58 58 59 59 59 58
35 37 39 40 42 42 43 43 42 42 42 43 43 43 43 43 43 44 45 45 46 47 47 47 48 48 49 50 50 50 50 50 51 51 51 51 51 51 51 52 52 52 52 52 52 52 52 52 52 52 52 52 52 52 52 52 52 52 52 52 52 52 52 52 53 53 53 54 55 54 54 53 53 53 53 53 53 51 51 50 50 50 51 50 48 44 43 42 42 43 43 43 45 48 55 56 55 53 54 54 54 55 56
32 34 36 38 40 41 41 41 42 42 42 42 42 42 43 43 43 43 44 44 45 46 47 47 47 48 48 49 49 49 50 50 50 50 50 51 51 51 51 51 51 51 51 52 52 52 52 52 52 52 52 52 52 52 53 52 52 52 52 52 52 52 52 53 54 55 56 55 55 54 54 53 53 53 53 53 53 52 51 51 50 50 51 50 47 43 43 42 42 43 42 42 43 45 51 53 53 51 52 52 53 53 54
32 32 34 36 38 39 40 40 41 41 41 42 42 42 43 44 44 43 43 44 45 45 46 46 47 47 47 48 48 49 49 50 50 50 50 50 50 50 51 51 51 51 51 51 51 51 51 51 51 52 52 52 52 52 53 52 52 52 52 52 53 53 53 53 53 55 55 55 54 55 55 54 53 53 53 53 53 52 51 51 51 51 51 49 46 42 42 42 42 43 42 42 42 43 49 51 53 52 52 52 53 54 54
34 33 33 33 35 38 39 39 40 40 41 42 42 42 44 44 44 43 43 44 45 45 45 46 46 47 47 47 47 48 48 49 49 49 49 49 49 50 50 50 50 50 50 50 51 51 51 51 51 51 51 51 52 52 52 52 52 52 52 53 54 54 54 54 55 56 55 54 54 55 56 55 54 53 52 52 52 52 52 52 51 51 51 49 46 41 42 42 42 42 42 42 42 42 47 51 54 53 52 52 53 54 54
36 35 33 32 33 34 36 38 39 40 40 41 42 43 43 44 44 43 43 44 44 45 45 45 45 46 47 47 47 47 48 48 48 49 49 49 49 49 49 50 50 50 50 50 50 50 50 50 51 51 51 51 51 51 51 51 51 51 53 53 54 54 54 55 55 55 54 53 54 55 55 55 55 54 52 51 51 52 52 52 52 51 51 50 46 40 42 42 42 42 42 42 42 42 47 51 53 53 52 52 53 54 55
37 36 34 33 31 31 33 35 38 39 40 40 42 42 42 42 43 43 43 44 44 44 44 45 45 45 46 46 47 47 47 47 48 48 48 48 48 48 49 49 49 49 49 49 49 49 49 50 50 50 50 51 51 51 51 51 51 51 52 52 52 53 55 56 56 55 55 54 54 55 55 55 54 52 53 53 53 52 53 53 53 53 53 50 45 40 41 41 42 42 42 42 41 41 48 51 52 52 52 52 53 54 55